Regional Weather Roundup
Issued by NWS Binghamton, NY

Home | Current Version | Previous Version | Text Only | Print | Product List | Glossary On
Versions: 1 2 3 4 5 6 7 8 9 10 11 12 13 14 15 16 17 18 19 20 21 22 23 24 25 26 27 28
000
ASUS41 KBGM 010910
RWRBGM

REGIONAL WEATHER ROUNDUP
NATIONAL WEATHER SERVICE BINGHAMTON NY
500 AM EDT SUN MAY 01 2016

Note: "fair" indicates few or no clouds below 12,000 feet with no
significant weather and/or obstructions to visibility.

* = Station(s) that does not report precipitation, such as rain,
snow, etc, also no thunder or fog.

NYZ009-015>018-022>025-036-037-044>046-055>057-062-011000
...Central New York...

CITY           SKY/WX    TMP DP  RH WIND       PRES   REMARKS
Binghamton     LGT RAIN  44  44 100 SE10      30.08F FOG
Cortland       RAIN      46  45  93 CALM      30.09S
Dansville      RAIN      49  46  90 SE6       30.02F FOG
Elmira         RAIN      49  45  86 SE9       30.05F FOG
Ithaca         LGT RAIN  47  45  93 SE9       30.07F
Hamilton       CLOUDY    50  45  81 S3        30.11F
Hornell        RAIN      46  45  93 SE7       30.04S
Monticello     CLOUDY    45  36  70 S5        30.18S
Norwich        RAIN      46  45  93 CALM      30.12S
Penn Yan       LGT RAIN  48  45  89 VRB5      30.05S FOG
Rome           LGT RAIN  50  45  83 E6        30.13S
Sidney         DRIZZLE   50  48  93 CALM      30.12F
Syracuse       LGT RAIN  50  46  86 E7        30.09S
$$

PAZ038>040-043-044-047-048-072-011000
...Northeast Pennsylvania...

CITY           SKY/WX    TMP DP  RH WIND       PRES   REMARKS
Hazleton       LGT RAIN  41  37  87 SE8       30.15F
Scranton       LGT RAIN  47  41  80 E3        30.13F
$$
&&
KEY
WCI = Wind Chill Index
VSB = Visibility
HX  = Heat Index
$$




USA.gov is the U.S. government's official web portal to all federal, state and local government web resources and services.